Station 46001 (LLNR 984) - WESTERN GULF OF ALASKA - 175NM SE of Kodiak, AK Image indicating link to RSS feed of recent meteorological observations for station 46001


Conditions at 46001 as of
(6:10 am HAST)
1610 GMT on 07/13/2024:
     

Click on the graph icon in the table below to see a time series plot of the last five days of that observation.

5-day plot - Wind Direction Wind Direction (WDIR):SSW ( 210 deg true )
5-day plot - Wind Speed Wind Speed (WSPD): 15.5 kts
5-day plot - Wind Gust Wind Gust (GST): 19.4 kts
5-day plot - Atmospheric Pressure Atmospheric Pressure (PRES):29.62 in
5-day plot - Air Temperature Air Temperature (ATMP): 51.3 °F
5-day plot - Water Temperature Water Temperature (WTMP): 52.7 °F
5-day plot - Dew Point Dew Point (DEWP): 50.9 °F
5-day plot - Wind Chill Wind Chill (CHILL): 45.7 °F
5-day plot - Wind Speed at 10 Meters Wind Speed at 10 meters (WSPD10M): 17.5 kts
5-day plot - Wind Speed at 20 Meters Wind Speed at 20 meters (WSPD20M): 17.5 kts
5-day plot -  Wind Speed, Wind Gust and Atmospheric Pressure Combined plot of Wind Speed, Gust, and Air Pressure
Supplemental Measurements
Highest 1-minute Wind Speed
Time (HAST)5-day plot - 1-Minute Wind Speed WSPD 5-day plot - 1-Minute Wind Direction WDIR
6:01 am 15.5 kts-
Previous observations
TIME
(HAST)
5-day plot - Wind Direction
WDIR
 
5-day plot - Wind Speed
WSPD
kts
5-day plot - Wind Gust
GST
kts
5-day plot - Wave Height
WVHT
ft
5-day plot - Dominant Wave Period
DPD
sec
5-day plot - Average Wave Period
APD
sec
5-day plot - Mean Wave Direction
MWD
 
5-day plot - Atmospheric Pressure
PRES
in
5-day plot - Pressure Tendency
PTDY
in
5-day plot - Air Temperature
ATMP
°F
5-day plot - Water Temperature
WTMP
°F
5-day plot - Dew Point
DEWP
°F
5-day plot - Salinity
SAL
psu
5-day plot - Visibility
VIS
nmi
5-day plot - Tide (above MLLW)
TIDE
ft
2024-07-13 06:00 amSSW 15.5 17.5----29.63-0.03 51.3 52.7 50.9---
2024-07-13 05:50 amSSW 13.6 19.4 7.2 76.1SSW29.63- 51.4 52.7 51.1---
2024-07-13 05:40 amSSW 13.6 17.5----29.63- 51.4 52.7 51.1---
2024-07-13 05:30 amSSW 13.6 17.5----29.63- 51.4 52.7 51.1---
2024-07-13 05:20 amSSW 13.6 17.5 7.5 86.1SSW29.64- 51.4 52.7 51.1---
2024-07-13 05:10 amSSW 13.6 17.5 7.5-6.1SSW29.64- 51.4 52.5 51.1---
2024-07-13 05:00 amSSW 13.6 17.5----29.64-0.03 51.3 52.5 50.9---
2024-07-13 04:50 amSSW 15.5 17.5 6.9 76.1SSW29.64- 51.3 52.5 50.9---
2024-07-13 04:40 amSSW 13.6 17.5 6.9-6.1SSW29.64- 51.3- 50.9---
2024-07-13 04:30 amSSW 13.6 17.5----29.64- 51.3 52.5 51.1---
2024-07-13 04:20 amSSW 13.6 17.5 6.9 76.0 S29.65- 51.3 52.5 51.1---
2024-07-13 04:10 am SW 13.6 17.5 6.9-6.0 S29.65- 51.3 52.5 51.1---
2024-07-13 04:00 am SW 15.5 17.5----29.65-0.03 51.3 52.5 51.1---
2024-07-13 03:50 amSSW 15.5 17.5 6.6 75.9SSW29.65- 51.3 52.5 51.1---
2024-07-13 03:40 am SW 13.6 17.5----29.65- 51.3 52.5 51.1---
2024-07-13 03:30 am SW 13.6 17.5----29.65- 51.3 52.5 51.1---
2024-07-13 03:20 am SW 15.5 19.4 7.2 86.1SSW29.65- 51.3 52.5 51.1---
2024-07-13 03:10 am SW 15.5 17.5----29.66- 51.3 52.5 51.1---
2024-07-13 03:00 am SW 15.5 19.4----29.66-0.04 51.3 52.5 51.1---
2024-07-13 02:50 am SW 15.5 17.5 6.6 86.1SSW29.66- 51.3 52.5 51.1---
2024-07-13 02:40 am SW 15.5 17.5----29.66- 51.3 52.5 51.1---
2024-07-13 02:30 am SW 13.6 17.5----29.67- 51.3 52.5 51.1---
2024-07-13 02:20 am SW 13.6 17.5 6.6 86.1SSW29.67- 51.3 52.5 51.1---
2024-07-13 02:10 amSSW 13.6 17.5 6.6-6.1SSW29.67- 51.4 52.5 51.3---
2024-07-13 02:00 amSSW 13.6 17.5----29.67-0.04 51.4 52.5 51.3---
2024-07-13 01:50 amSSW 13.6 17.5 5.9 85.8 SW29.67- 51.4 52.5 51.1---
2024-07-13 01:40 amSSW 13.6 15.5----29.67- 51.4 52.7 51.3---
2024-07-13 01:30 amSSW 13.6 17.5----29.67- 51.4 52.7 51.1---
2024-07-13 01:20 am SW 13.6 15.5 6.2 85.9 SW29.67- 51.4 52.7 51.1---
2024-07-13 01:10 amSSW 13.6 17.5 6.2-5.9 SW29.68- 51.4 52.7 51.1---
2024-07-13 01:00 amSSW 13.6 17.5----29.68-0.04 51.4 52.7 51.1---
2024-07-13 12:50 amSSW 13.6 17.5 5.9 85.7 SW29.69- 51.4 52.7 51.1---
2024-07-13 12:40 amSSW 13.6 17.5 5.9-5.7 SW29.69- 51.4 52.7 51.1---
2024-07-13 12:30 amSSW 13.6 17.5----29.69- 51.4 52.7 51.1---
2024-07-13 12:20 amSSW 15.5 19.4 5.9 75.8SSW29.70- 51.4 52.7 51.1---
2024-07-13 12:10 amSSW 15.5 19.4 5.9-5.8SSW29.70- 51.4 52.7 51.1---
2024-07-13 12:00 amSSW 15.5 19.4----29.70-0.02 51.4 52.7 51.1---
2024-07-12 11:50 pmSSW 15.5 17.5 5.6 75.6 S29.70- 51.4 52.7 50.9---
2024-07-12 11:40 pmSSW 15.5 17.5 5.6-5.6 S29.70- 51.4 52.7 50.9---
2024-07-12 11:30 pmSSW 15.5 19.4----29.70- 51.4 52.9 50.9---
2024-07-12 11:20 pmSSW 15.5 19.4 5.9 75.6 S29.70- 51.4 52.9 50.9---
2024-07-12 11:10 pm S 15.5 19.4 5.9-5.6 S29.70- 51.4 52.9 50.9---
2024-07-12 11:00 pmSSW 15.5 19.4----29.70-0.02 51.4 52.9 50.9---
2024-07-12 10:50 pm S 15.5 19.4 5.6 75.5SSW29.71- 51.4 52.7 51.1---
2024-07-12 10:40 pmSSW 15.5 19.4 5.6-5.5SSW29.71- 51.3 52.9 50.9---
2024-07-12 10:30 pm S 15.5 19.4----29.71- 51.4 52.9 51.1---
2024-07-12 10:20 pm S 15.5 19.4 5.9 75.4 S29.71- 51.4 52.9 50.9---
2024-07-12 10:10 pmSSW 15.5 19.4 5.9-5.4 S29.71- 51.6 52.9 51.1---
2024-07-12 10:00 pmSSW 15.5 19.4----29.72-0.04 51.6 52.9 51.1---
2024-07-12 09:50 pm S 17.5 21.4 5.9 75.2SSW29.72- 51.6 52.9 51.1---
2024-07-12 09:40 pm S 17.5 19.4 5.9-5.2SSW29.72- 51.6 52.9 51.1---
2024-07-12 09:30 pm S 15.5 21.4----29.72- 51.6 52.9 51.1---
2024-07-12 09:20 pm S 17.5 21.4 5.9 65.1SSE29.72- 51.6 52.9 51.1---
2024-07-12 09:10 pm S 17.5 21.4 5.9-5.1SSE29.72- 51.6 52.9 51.1---
2024-07-12 09:00 pm S 17.5 21.4----29.72-0.04 51.6 52.9 51.1---
2024-07-12 08:50 pm S 17.5 21.4 6.2 75.4SSW29.72- 51.8 52.9 51.3---
2024-07-12 08:40 pm S 17.5 21.4 6.2-5.4SSW29.72- 51.8 52.9 51.3---
2024-07-12 08:30 pm S 17.5 21.4----29.72- 51.6 52.9 51.1---
2024-07-12 08:20 pm S 17.5 23.3 6.2 75.1 S29.73- 51.8 52.9 51.3---
2024-07-12 08:10 pm S 17.5 21.4 6.2-5.1 S29.73- 51.8 53.1 51.3---
2024-07-12 08:00 pm S 17.5 21.4----29.73-0.06 51.8 53.1 51.3---
2024-07-12 07:50 pm S 17.5 23.3 5.9 65.1 S29.73- 51.8 53.1 51.3---
2024-07-12 07:40 pm S 17.5 21.4----29.74- 52.0 53.1 51.4---
2024-07-12 07:30 pm S 17.5 23.3----29.74- 52.0 53.1 51.4---
2024-07-12 07:20 pm S 17.5 23.3 6.2 65.0SSW29.74- 52.0 53.1 51.4---
2024-07-12 07:10 pm S 17.5 23.3 6.2-5.0SSW29.74- 52.0 53.1 51.4---
2024-07-12 07:00 pm S 19.4 23.3----29.75-0.06 52.0 53.1 51.4---
2024-07-12 06:50 pm S 19.4 23.3 6.9 65.3 S29.75- 52.2 53.1 51.6---
2024-07-12 06:40 pm S 19.4 23.3----29.75- 52.2 53.2 51.6---
2024-07-12 06:30 pm S 19.4 23.3----29.75- 52.2 53.2 51.6---
2024-07-12 06:20 pm S 19.4 23.3 6.2 75.0SSW29.76- 52.2 53.2 51.6---
2024-07-12 06:10 pm S 19.4 23.3 6.2-5.0SSW29.76- 52.2 53.2 51.6---
2024-07-12 06:00 pm S 19.4 23.3----29.76-0.07 52.2 53.2 51.6---
2024-07-12 05:50 pm S 17.5 23.3 6.6 65.1 S29.77- 52.2 53.2 51.6---
2024-07-12 05:40 pm S 17.5 21.4 6.6-5.1 S29.77- 52.2 53.2 51.6---
2024-07-12 05:30 pm S 17.5 23.3----29.78- 52.2 53.2 51.6---
2024-07-12 05:20 pm S 17.5 23.3 6.2 65.2 S29.78- 52.2 53.2 51.6---
2024-07-12 05:10 pm S 19.4 23.3 6.2-5.2 S29.78- 52.2 53.2 51.6---
2024-07-12 05:00 pm S 19.4 23.3----29.79-0.08 52.2 53.2 51.8---
2024-07-12 04:50 pm S 19.4 25.3 5.9 64.8 S29.79- 52.2 53.2 51.6---
2024-07-12 04:40 pm S 19.4 23.3 5.9-4.8 S29.80- 52.2 53.2 51.6---
2024-07-12 04:30 pmSSE 19.4 25.3----29.80- 52.2 53.2 51.6---
2024-07-12 04:20 pmSSE 19.4 25.3 6.2 65.1 S29.80- 52.2 53.2 51.6---
2024-07-12 04:10 pmSSE 19.4 23.3 6.2-5.1 S29.81- 52.2 53.2 51.6---
2024-07-12 04:00 pmSSE 21.4 25.3----29.81-0.09 52.2 53.2 51.6---
2024-07-12 03:50 pmSSE 21.4 25.3 5.6 64.9 S29.81- 52.2 53.2 51.6---
2024-07-12 03:40 pmSSE 21.4 25.3 5.6-4.9 S29.81- 52.2 53.2 51.6---
2024-07-12 03:30 pmSSE 21.4 25.3----29.82- 52.0 53.4 51.4---
2024-07-12 03:20 pmSSE 21.4 25.3 5.9 65.0 S29.83- 52.0 53.4 51.4---
2024-07-12 03:10 pmSSE 21.4 27.2 5.9-5.0 S29.83- 52.0 53.4 51.4---
2024-07-12 03:00 pmSSE 21.4 25.3----29.84-0.09 52.2 53.4 51.6---
2024-07-12 02:50 pmSSE 21.4 25.3 5.6 65.0SSW29.85- 52.0 53.4 51.4---
2024-07-12 02:40 pmSSE 21.4 25.3----29.85- 52.0 53.4 51.4---
2024-07-12 02:30 pmSSE 19.4 25.3----29.85- 52.0 53.4 51.3---
2024-07-12 02:20 pmSSE 19.4 25.3 5.6 75.0SSW29.86- 52.0 53.4 51.1---
2024-07-12 02:10 pmSSE 19.4 23.3 5.6-5.0SSW29.87- 52.0 53.4 51.1---
2024-07-12 02:00 pmSSE 19.4 25.3----29.88-0.07 52.0 53.4 51.1---
2024-07-12 01:50 pmSSE 19.4 25.3 4.9 74.9WSW29.88- 51.8 53.4 50.9---
2024-07-12 01:40 pmSSE 19.4 25.3----29.89- 51.8 53.4 50.9---
2024-07-12 01:10 pmSSE 19.4 23.3 5.2-5.1SSW29.89- 51.6 53.4 50.4---
2024-07-12 01:00 pmSSE 19.4 23.3----29.90-0.06 51.6 53.4 50.4---
2024-07-12 12:50 pmSSE 19.4 23.3 4.9 65.1 S29.91- 51.6 53.4 50.4---
2024-07-12 12:40 pmSSE 19.4 23.3 4.9-5.1 S29.91- 51.6 53.4 50.2---
2024-07-12 12:30 pmSSE 19.4 23.3----29.91- 51.4 53.4 50.0---
2024-07-12 12:20 pmSSE 17.5 21.4 5.2 65.1 S29.92- 51.4 53.4 49.8---
2024-07-12 12:10 pmSSE 17.5 21.4 5.2-5.1 S29.92- 51.6 53.4 50.0---
2024-07-12 12:00 pmSSE 17.5 23.3----29.92-0.05 51.4 53.4 49.5---
2024-07-12 11:50 amSSE 17.5 21.4 4.9 75.1SSW29.93- 51.4 53.6 49.5---
2024-07-12 11:40 amSSE 17.5 21.4----29.93- 51.3 53.6 49.3---
2024-07-12 11:30 amSSE 17.5 21.4----29.94- 51.3 53.6 49.1---
2024-07-12 11:20 amSSE 15.5 21.4 4.6 75.1 SW29.94- 51.3 53.6 49.1---
2024-07-12 11:10 am S 17.5 21.4 4.6-5.1 SW29.94- 51.3 53.6 48.9---
2024-07-12 11:00 amSSE 15.5 21.4----29.95-0.03 51.3 53.6 48.9---
2024-07-12 10:50 am S 15.5 19.4 4.6 75.0SSW29.95- 51.1 53.6 48.7---
2024-07-12 10:40 am S 15.5 19.4 4.6-5.0SSW29.95- 51.1 53.6 48.7---
2024-07-12 10:30 am S 17.5 21.4----29.96- 50.9 53.6 48.4---
2024-07-12 10:20 am S 15.5 19.4 4.3 75.1 S29.96- 50.9 53.6 48.2---
2024-07-12 10:10 am S 15.5 19.4 4.3-5.1 S29.96- 50.9 53.6 47.7---
2024-07-12 10:00 am S 15.5 19.4----29.96-0.01 50.7 53.6 47.3---
2024-07-12 09:50 am S 15.5 21.4 4.3 75.1SSW29.96- 50.5 53.6 47.3---
2024-07-12 09:40 am S 15.5 19.4 4.3-5.1SSW29.97- 50.5 53.6 47.3---
2024-07-12 09:30 am S 15.5 19.4----29.97- 50.5 53.6 47.3---
2024-07-12 09:20 am S 15.5 19.4 3.9 65.0SSW29.97- 50.4 53.6 47.1---
2024-07-12 09:10 am S 15.5 19.4 3.9-5.0SSW29.97- 50.5 53.6 47.1---
2024-07-12 09:00 am S 15.5 19.4----29.98+0.00 50.5 53.6 47.3---
2024-07-12 08:50 am S 15.5 19.4 3.9 74.9SSW29.97- 50.5 53.6 47.5---
2024-07-12 08:40 am S 13.6 17.5 3.9-4.9SSW29.97- 50.4 53.6 47.5---
2024-07-12 08:30 am S 15.5 17.5----29.97- 50.7 53.4 48.0---
2024-07-12 08:20 am S 15.5 19.4 3.9 75.2SSW29.97- 50.7 53.4 47.8---
2024-07-12 08:10 am S 13.6 17.5 3.9-5.2SSW29.98- 50.5 53.4 47.8---
2024-07-12 08:00 amSSW 15.5 17.5----29.98+0.00 50.7 53.4 47.7---
2024-07-12 07:50 amSSW 13.6 17.5 4.3 75.4 SW29.98- 50.5 53.4 48.0---
2024-07-12 07:40 amSSW 13.6 17.5 4.3-5.4 SW29.97- 50.9 53.4 48.2---
2024-07-12 07:30 amSSW 13.6 17.5----29.98- 50.9 53.4 48.2---
2024-07-12 07:20 amSSW 13.6 17.5 3.9 75.4 SW29.98- 51.3 53.4 48.6---
2024-07-12 07:10 amSSW 15.5 17.5 3.9-5.4 SW29.98- 50.9 53.4 48.2---
2024-07-12 07:00 amSSW 13.6 15.5----29.98-0.01 50.9 53.4 48.9---
2024-07-12 06:50 am SW 13.6 17.5 3.9 75.5SSW29.98- 50.5 53.4 49.3---
2024-07-12 06:40 amSSW 13.6 17.5 3.9-5.5SSW29.98- 50.7 53.4 49.6---
2024-07-12 06:30 amSSW 13.6 15.5----29.97- 50.9 53.4 49.6---
2024-07-12 06:20 amSSW 11.7 15.5 4.6 76.0 SW29.98- 51.3 53.4 49.8---
2024-07-12 06:10 am S 9.7 11.7----29.97- 51.3 53.4 49.6---
2024-07-12 06:00 am S 9.7 13.6----29.98+0.00 51.3 53.4 49.8---
2024-07-12 05:50 amSSW 9.7 11.7 4.6 76.0 SW29.98- 51.4 53.4 50.0---

Detailed Wave Summary
for 46001 as of (5:40 am HAST)
1540 GMT on 07/13/2024:

These wave data are displayed in rounded times.

     

Click on the graph icon in the table below to see a time series plot of the last five days of that observation.

5-day plot - Significant Wave Height Significant Wave Height (WVHT): 7.2 ft
5-day plot - Swell Height Swell Height (SwH): 5.6 ft
5-day plot - Swell Period Swell Period (SwP): 7.1 sec
5-day plot - Swell Direction Swell Direction (SwD):SSW
5-day plot - Wind Wave Height Wind Wave Height (WWH): 4.6 ft
5-day plot - Wind Wave Period Wind Wave Period (WWP): 6.2 sec
5-day plot - Wind Wave Direction Wind Wave Direction (WWD): S
5-day plot - Wave Steepness Wave Steepness (STEEPNESS): STEEP
5-day plot - Average Wave Period Average Wave Period (APD): 6.1 sec
Previous observations
TIME
(HAST)
5-day plot - Wave Height
WVHT
ft
5-day plot - Swell Height
SwH
ft
5-day plot - Swell Period
SwP
sec
5-day plot - Swell Direction
SwD
 
5-day plot - Wind Wave Height
WWH
ft
5-day plot - Wind Wave Period
WWP
sec
5-day plot - Wind Wave Direction
WWD
 
5-day plot - Wave Steepness
STEEPNESS
 
5-day plot - Average Wave Period
APD
sec
2024-07-13 05:10 am 7.5 5.6 7.7SSW 4.9 5.6 SSW STEEP 6.1
2024-07-13 04:40 am 6.9 5.6 7.1SSW 4.3 4.3 SSW STEEP 6.1
2024-07-13 04:10 am 6.9 5.2 7.1 S 4.6 4.2 S STEEP 6.0
2024-07-13 03:40 am 6.6 4.6 7.1SSW 4.6 5.3 S STEEP 5.9
2024-07-13 03:10 am 7.2 5.2 7.7SSW 4.9 4.0 S STEEP 6.1
2024-07-13 02:40 am 6.6 4.6 7.7SSW 4.9 5.6 SSE STEEP 6.1
2024-07-13 02:10 am 6.6 4.9 7.7SSW 4.3 5.6 S STEEP 6.1
2024-07-13 01:40 am 5.9 4.3 7.7 SW 3.9 5.9 S STEEP 5.8
2024-07-13 01:10 am 6.2 4.6 7.7 SW 4.3 5.9 S STEEP 5.9
2024-07-13 12:40 am 5.9 4.3 8.3 SW 3.9 5.6 S AVERAGE 5.7
2024-07-13 12:10 am 5.9 3.3 8.3 SW 4.9 7.1 SSW STEEP 5.8
2024-07-12 11:40 pm 5.6 3.0 12.1 SE 4.9 7.1 S STEEP 5.6
2024-07-12 11:10 pm 5.9 3.3 11.4 S 4.9 7.1 S STEEP 5.6
2024-07-12 10:40 pm 5.6 2.6 11.4SSE 4.9 7.1 SSW STEEP 5.5
2024-07-12 10:10 pm 5.9 2.6 16.0 S 5.2 6.7 S STEEP 5.4
2024-07-12 09:40 pm 5.9 1.3 12.1 S 5.9 6.7 SSW STEEP 5.2
2024-07-12 09:10 pm 5.9 1.3 10.0 S 5.6 5.9 SSEVERY_STEEP 5.1
2024-07-12 08:40 pm 6.2 1.6 10.8 S 6.2 6.7 SSW STEEP 5.4
2024-07-12 08:10 pm 6.2 1.6 11.4SSE 5.9 7.1 S STEEP 5.1
2024-07-12 07:40 pm 5.9 1.6 10.8SSE 5.9 6.2 SVERY_STEEP 5.1
2024-07-12 07:10 pm 6.2 1.6 13.8 SE 6.2 6.2 SSWVERY_STEEP 5.0
2024-07-12 06:40 pm 6.9 1.6 11.4 S 6.9 6.2 SVERY_STEEP 5.3
2024-07-12 06:10 pm 6.2 1.6 11.4SSE 6.2 6.7 SSW STEEP 5.0
2024-07-12 05:40 pm 6.6 1.6 16.0SSE 6.2 6.2 SVERY_STEEP 5.1
2024-07-12 05:10 pm 6.2 2.0 11.4 SE 5.9 6.2 SVERY_STEEP 5.2
2024-07-12 04:40 pm 5.9 1.3 12.9 SE 5.6 5.9 SVERY_STEEP 4.8
2024-07-12 04:10 pm 6.2 2.0 11.4SSE 5.9 5.9 SVERY_STEEP 5.1
2024-07-12 03:40 pm 5.6 1.3 16.0SSE 5.6 6.2 SVERY_STEEP 4.9
2024-07-12 03:10 pm 5.9 1.6 11.4SSE 5.6 5.6 SVERY_STEEP 5.0
2024-07-12 02:40 pm 5.6 1.6 11.4SSE 5.2 6.2 SSWVERY_STEEP 5.0
2024-07-12 02:10 pm 5.6 1.3 11.4 S 5.2 6.7 SSW STEEP 5.0
2024-07-12 01:40 pm 4.9 1.3 12.1 SE 4.6 7.1 WSW STEEP 4.9
2024-07-12 01:10 pm 5.2 2.0 11.4SSE 4.9 6.2 SSW STEEP 5.1
2024-07-12 12:40 pm 4.9 1.6 11.4 S 4.6 5.6 SVERY_STEEP 5.1
2024-07-12 12:10 pm 5.2 1.6 12.1SSE 4.9 6.2 S STEEP 5.1
2024-07-12 11:40 am 4.9 2.0 11.4 S 4.3 6.7 SSW STEEP 5.1
2024-07-12 11:10 am 4.6 2.0 11.4 S 4.3 7.1 SW STEEP 5.1
2024-07-12 10:40 am 4.6 2.3 7.7 SW 3.9 6.7 SSW STEEP 5.0
2024-07-12 10:10 am 4.3 2.3 8.3 SW 3.6 6.7 S STEEP 5.1
2024-07-12 09:40 am 4.3 2.3 9.1SSW 3.9 6.7 SSW STEEP 5.1
2024-07-12 09:10 am 3.9 2.6 7.7 SW 3.0 5.9 SSW STEEP 5.0
2024-07-12 08:40 am 3.9 2.6 7.1SSW 3.0 6.2 SSW AVERAGE 4.9
2024-07-12 08:10 am 3.9 3.0 6.7SSW 3.0 5.3 SSW STEEP 5.2
2024-07-12 07:40 am 4.3 2.6 7.7 SW 3.6 6.7 SW STEEP 5.4
2024-07-12 07:10 am 3.9 3.0 6.7 SW 2.6 5.6 SSW STEEP 5.4
2024-07-12 06:40 am 3.9 2.3 11.4 S 3.3 6.7 SSW STEEP 5.5
2024-07-12 06:10 am 4.6 4.3 7.1 SW 1.6 4.3 SW STEEP 6.0

Plot of wave energy versus frequency (and period)